Location: Woodstock
(43.1330°N, 80.7500°W)
Time: 15:17:24
(UTC-04:00)

Daily predictions for brighter satellites

Satellite Brightness Start Highest point End
(mag) Time Altitude Azimuth Time Altitude Azimuth Time Altitude Azimuth
Cosmos 1461 3.1 21:21:17 10° SSW 21:25:57 74° ESE 21:30:30 10° NE
Cosmos 1939 Rocket 3.1 21:22:58 10° SSE 21:26:42 49° ENE 21:30:29 10° N
Cosmos 1782 3.8 21:25:08 10° NNE 21:28:45 31° ENE 21:32:23 10° SE
Cosmos 2263 Rocket 2.8 21:27:37 10° SW 21:33:14 63° WNW 21:38:52 10° NNE
CENTAUR R/B 3.2 21:26:49 10° NW 21:34:41 85° NE 21:43:01 10° SE
SL-27 R/B 3.4 21:36:00 10° N 21:39:25 35° ENE 21:42:35 11° SE
SL-8 R/B 4.0 21:36:58 10° SW 21:41:35 46° SE 21:46:11 10° ENE
YAOGAN 6 3.8 21:40:07 11° SE 21:42:56 25° ENE 21:45:54 10° NNE
Cosmos 1408 4.4 21:40:58 11° ESE 21:43:02 16° E 21:45:17 10° NE
NOSS 2-2 (D) 3.8 21:40:04 10° SSW 21:44:01 47° ESE 21:48:32 10° NE
Coronas F rocket 1.1 21:42:53 10° S 21:45:31 80° E 21:48:11 10° N
COS B Rocket 4.2 21:43:34 10° NNE 21:47:30 34° E 21:50:52 11° SSE
Cosmos 2184 Rocket 4.0 21:41:22 10° S 21:47:30 77° E 21:53:41 10° N
deb Chang Zheng 4 3.6 21:43:14 10° NNE 21:47:37 66° ESE 21:52:01 10° S
Cosmos 1606 3.6 21:47:47 10° N 21:51:24 33° ENE 21:54:20 14° SE
Meteor 2-10 Rocket 4.0 21:51:35 10° NNW 21:57:25 74° W 22:03:07 10° S
Cosmos 1908 Rocket 4.1 21:54:04 10° SSE 21:58:07 38° E 22:02:14 10° NNE
Cosmos 1624 Rocket 4.0 21:53:10 10° SSW 21:58:26 79° ESE 22:03:45 10° NNE
NOSS 2-2 (C) 3.5 21:54:34 10° SSW 21:58:38 67° ESE 22:03:22 10° NE
H-2A R/B 3.7 21:56:04 11° ESE 21:59:48 21° ENE 22:03:43 10° NNE
Cosmos 1892 3.1 21:56:06 10° SSW 21:59:54 65° W 22:03:44 10° N
Envisat 3.1 21:54:52 10° SSE 21:59:57 83° WSW 22:05:04 10° NNW
USA 245 4.0 21:58:30 16° ESE 22:00:17 28° ENE 22:03:25 10° N
SL-08 ROCKET BODY 4.4 21:54:40 10° S 22:00:44 88° E 22:06:43 10° N
Cosmos 1733 Rocket 3.2 21:59:45 10° S 22:04:11 80° W 22:08:36 10° N
Cosmos 1378 Rocket 4.1 22:01:04 10° N 22:05:10 41° ENE 22:08:05 17° SE
Meteor 2-6 Rocket 4.3 21:59:40 10° N 22:05:40 83° ENE 22:11:34 10° SSE
CZ-4 SHROUD 3.1 22:08:16 18° SSE 22:10:22 68° ENE 22:13:28 10° N
SPOT 1/Viking Rocket 3.8 22:10:27 16° SE 22:14:27 56° ENE 22:19:34 10° N
ERBS 2.6 22:11:09 10° NW 22:14:36 62° SW 22:16:36 22° SSE
Cosmos 407 Rocket 3.5 22:12:34 10° NNW 22:17:51 81° ENE 22:21:51 18° SSE
NOSS 2-2 (E) 3.8 22:13:42 10° SW 22:17:53 75° NW 22:22:52 10° NE
Cosmos 1238 Rocket 2.7 22:17:34 10° N 22:20:33 45° E 22:21:59 26° SE
Cosmos 1452 Rocket 3.7 22:17:11 10° S 22:22:15 50° ESE 22:27:21 10° NNE
SPOT 5 3.3 22:19:21 11° S 22:24:22 69° WSW 22:29:45 10° NNW
COSMOS 2406 3.8 22:20:27 10° NNW 22:26:04 55° WSW 22:30:59 13° S
Cosmos 1190 Rocket 4.2 22:23:16 10° NNW 22:28:26 66° WSW 22:32:30 16° S
H-2A R/B 3.3 22:24:47 10° SSW 22:28:50 37° W 22:32:50 10° NNW
PSLV R/B 3.8 22:29:27 20° S 22:31:14 49° W 22:34:07 10° NNW
BREEZE-M TANK 4.1 22:12:20 10° W 22:31:25 77° N 22:35:33 10° ENE
Cosmos 2084 4.0 22:32:17 28° ESE 22:32:21 28° ESE 22:35:41 10° ENE
MetOp-B 4.3 22:28:34 14° S 22:33:11 71° WSW 22:38:33 10° NNW
Cosmos 1140 Rocket 4.0 22:30:01 10° N 22:34:57 44° ENE 22:37:36 24° ESE
Nadezhda 3 Rocket 4.1 22:30:04 10° N 22:36:27 85° W 22:41:46 16° S
Cosmos 1862 3.3 22:33:23 16° S 22:36:37 87° ESE 22:40:44 10° N
Terra 2.7 22:37:59 24° ESE 22:40:04 35° ENE 22:44:23 10° N
ARGOS 3.1 22:38:34 22° SSE 22:42:08 86° ENE 22:47:31 10° NNW
ATLAS 5 CENTAUR R/B 3.2 22:36:40 10° NW 22:42:25 46° WSW 22:46:55 18° S
DELTA 2 DEB (DPAF) 4.5 22:42:45 30° SE 22:44:42 52° ENE 22:49:04 10° N
Okean 2 Rocket 3.1 22:42:45 27° SSE 22:45:03 61° E 22:49:26 10° NNE
PSLV R/B 4.3 22:43:20 10° W 22:46:28 31° SSW 22:46:43 31° S
Cosmos 2278 Rocket 2.2 22:43:31 13° S 22:48:35 60° ESE 22:54:11 10° NNE
USA 234 3.3 22:42:42 10° NE 22:49:06 56° SE 22:55:28 10° SSW
CZ-4B R/B 3.4 22:45:36 10° NNE 22:50:39 86° WNW 22:54:54 14° SSW
Cosmos 1844 3.7 22:45:13 10° SSW 22:50:59 88° WNW 22:56:50 10° NNE
Cosmos 2341 Rocket 4.1 22:46:29 10° S 22:52:49 83° W 22:59:08 10° N
Cosmos 1833 Rocket 4.0 22:49:39 10° N 22:54:31 29° NE 22:57:19 19° E
Cosmos 1850 Rocket 4.4 22:49:56 10° N 22:55:07 51° ENE 22:57:23 31° SE
CZ-4C R/B 3.3 22:54:26 42° SE 22:55:31 63° ENE 22:59:29 10° N
Cosmos 1825 2.6 22:54:31 19° SSW 22:57:04 59° W 23:00:52 10° N
Cosmos 676 Rocket 4.3 22:53:01 10° NNW 22:58:08 60° WSW 23:01:01 26° S
Cosmos 1844 Rocket 3.4 22:56:45 10° SW 23:02:17 54° WNW 23:07:51 10° NNE
Timation 2 Rocket 3.9 22:56:32 10° NNW 23:02:33 67° ENE 23:05:20 32° SE
Cosmos 1812 4.3 23:01:36 10° NNE 23:04:41 22° ENE 23:04:51 22° ENE
Cosmos 1184 Rocket 3.3 23:04:01 33° SW 23:05:14 59° WNW 23:08:34 10° N
Cosmos 1954 Rocket 4.2 23:00:43 10° NNW 23:05:52 67° WSW 23:08:20 31° S
Cosmos 1174 3.7 23:03:26 10° NW 23:06:36 45° WSW 23:06:47 45° SW
Cosmos 2082 Rocket 2.9 23:01:46 10° NNW 23:07:14 44° ENE 23:09:37 29° ESE
Cosmos 1782 Rocket 4.1 23:07:23 19° SSW 23:10:24 58° W 23:14:50 10° N
Cosmos 1741 Rocket 4.0 23:07:49 10° NNW 23:13:03 70° ENE 23:14:51 41° SE
COSMOS 2487 2.8 23:09:33 10° NNW 23:13:08 58° WSW 23:13:44 49° SSW
Cosmos 1408 4.2 23:15:27 15° SW 23:17:58 31° WNW 23:21:17 10° NNW
CZ-4 R/B 4.2 23:13:46 10° N 23:18:24 61° WNW 23:21:34 20° SSW
IGS 5A 3.4 23:17:59 55° SE 23:18:48 76° ENE 23:22:59 10° N
Cosmos 2297 3.8 23:16:56 37° SSE 23:18:51 54° ESE 23:24:26 10° NNE
DNEPR-1 R/B 3.8 23:13:42 10° NNW 23:19:14 78° NE 23:20:38 47° SE
SL-8 Rocket 4.0 23:17:09 24° S 23:21:12 84° W 23:27:30 10° N
APEX 3.3 23:22:47 60° SE 23:22:59 61° ESE 23:27:43 10° NNE
SL-8 R/B 4.2 23:19:20 10° W 23:24:06 60° NNW 23:28:52 10° ENE
Cosmos 1975 Rocket 4.1 23:21:34 10° NNW 23:25:35 38° W 23:27:23 26° SW
CARTOSAT-1 3.6 23:27:44 52° S 23:28:41 73° WSW 23:33:02 10° NNW
USA 229 DEB 4.0 23:25:19 10° NNW 23:32:22 61° NE 23:35:48 32° ESE
USA 229 4.1 23:25:25 10° NNW 23:32:27 61° NE 23:35:55 32° ESE
Cosmos 1242 Rocket 3.8 23:33:35 10° NNW 23:36:53 33° W 23:37:28 31° WSW
Cosmos 1536 Rocket 3.5 23:33:55 10° N 23:38:26 89° E 23:39:02 66° S
H-2A R/B 2.5 23:36:42 36° SSW 23:38:46 58° W 23:44:04 10° NNW
Okean 1 3.8 23:34:53 10° N 23:38:43 46° ENE 23:38:43 46° ENE
Meteor 2-19 Rocket 4.4 23:37:44 43° SSE 23:39:49 72° E 23:45:55 10° NNE
Spot 2 3.9 23:40:41 10° NNE 23:45:09 83° ESE 23:45:30 74° SSE
Meteor 2-8 Rocket 4.5 23:43:39 10° N 23:49:49 78° W 23:51:55 44° S
Cosmos 2151 Rocket 4.0 23:49:00 45° SW 23:50:07 61° W 23:54:37 10° N
